Starlink 5923

operational
NORAD ID: 56489 Int'l Des: 2023-064 Owner: SPXS Country: US Constellation: starlink
LEOCIRCULAR

Starlink 5923について

説明を読み込み中...

リアルタイム位置

3D地球を読み込み中...

次回通過

高度履歴

Altitude vs Time

uPlot chart will show altitude changes over time

軌道要素

1 56489U 23064AT 26071.17144567 -.00000628 00000-0 -44832-4 0 9991
2 56489 69.9992 98.2267 0002898 274.8927 85.1901 14.98335918156601
Epoch: Mar 12, 2026 • Age: 14 hours

現在のステータス

高度 585.9 km
速度 7.57 km/s
衛星直下点 -41.54°S, 65.38°E
打ち上げ日 May 10, 2023
運用期間 2.8 years
タイプ internet

技術仕様

分類 Payload
質量 305.00 kg
乾燥質量 290.00 kg
総質量 305.00 kg
長さ 0.20 m
直径 2.80 m
スパン 9.00 m
形状 Box + pan
製造者 SPXS
バスタイプ Starlink
フェーズステータス In Orbit
所有者/国 SPXS/US

大規模コンステレーション

Loading constellations...